Home > Weather > Cumberland County > Past weeks

Flag for Canada Past Weather in Cumberland County, Nova Scotia, Canada — Yesterday and Last 2 Weeks

Now
54 °F

Cool.


Feels Like: 54 °F
Forecast: 59 / 77 °F
Wind: No wind

Location: Kentville

Current Time: Aug 24, 2016 at 7:35:10 AM

Latest Report: Aug 24, 2016 at 7:00 AM


Visibility: N/A

Pressure: 30.15 "Hg

Humidity: 89%

Dew Point: 51 °F

Location of Cumberland CountyLocation

Past Weather in Cumberland County — Graph

°F

Cumberland County Temperature Yesterday

Maximum temperature yesterday: 73 °F (at 4:00 PM)
Minimum temperature yesterday: 56 °F (at 7:00 AM)
Average temperature yesterday: 64 °F

High & Low Weather Summary for the Past Weeks

 TemperatureHumidityPressure
High85 °F (Aug 10, 2:00 PM)100% (Aug 14, 5:00 AM)30.22 "Hg (Aug 14, 5:00 AM)
Low50 °F (Aug 10, 6:00 AM)29% (Aug 10, 2:00 PM)29.70 "Hg (Aug 17, 2:00 PM)
Average67 °F76%29.98 "Hg
* Reported Aug 9 5:00 AM — Aug 24 5:00 AM, Cumberland County, Weather by CustomWeather, © 2016

Note: Actual official high and low records may vary slightly from our data, if they occured in-between our weather recording intervals... More about our weather records

Advertising

Cumberland County Weather History for the Previous 24 Hours

Scroll right to see more
 ConditionsComfort  
Time TempWeatherWind HumidityBarometerVisibility
5:00 AM
Wed, Aug 24
54 °FCool.1 mph84%30.14 "HgN/A
4:00 AM62 °FCool.3 mph64%30.14 "HgN/A
3:00 AM62 °FMild.3 mph54%30.15 "HgN/A
2:00 AM62 °FRefreshingly cool.5 mph59%30.16 "HgN/A
1:00 AM62 °FCool.6 mph61%30.16 "HgN/A
11:00 PM
Tue, Aug 23
63 °FMild.10 mph64%30.16 "HgN/A
10:00 PM64 °FMild.8 mph63%30.14 "HgN/A
9:00 PM65 °FMild.6 mph62%30.14 "HgN/A
8:00 PM67 °FMild.5 mph59%30.11 "HgN/A
7:00 PM71 °FMild.8 mph49%30.10 "HgN/A
6:00 PM72 °FMild.8 mph46%30.10 "HgN/A
5:00 PM73 °FMild.8 mph45%30.10 "HgN/A
4:00 PM73 °FMild.8 mph43%30.10 "HgN/A
3:00 PM73 °FMild.8 mph47%30.10 "HgN/A
2:00 PM71 °FMild.9 mph51%30.10 "HgN/A
1:00 PM70 °FMild.8 mph50%30.09 "HgN/A
12:00 PM69 °FMild.7 mph57%30.08 "HgN/A
11:00 AM65 °FMild.9 mph62%30.08 "HgN/A
10:00 AM62 °FMild.9 mph62%30.06 "HgN/A
9:00 AM60 °FCool.10 mph75%30.03 "HgN/A
8:00 AM58 °FCool.7 mph80%30.03 "HgN/A
7:00 AM56 °FCool.7 mph86%30.01 "HgN/A
Weather by CustomWeather, © 2016

See weather overviewHow to use our weather pages